| time (UTC) | temp F | wind direction | speed MPH | gust MPH | rain 1hr in | rain 24hr in | rain mn in | humidity % | barometer mb |
| 20260504231439 | 73 | 121 | 3.0 | 6.0 | 0.00 | 0.00 | 0.00 | 66 | 1010.1 |
| 20260504230935 | 73 | 119 | 3.0 | 6.0 | 0.00 | 0.00 | 0.00 | 67 | 1009.8 |
| 20260504230432 | 73 | 135 | 2.0 | 2.0 | 0.00 | 0.00 | 0.00 | 67 | 1010.1 |
| 20260504225932 | 72 | 128 | 2.0 | 6.0 | 0.00 | 0.00 | 0.00 | 67 | 1010.1 |
| 20260504225428 | 72 | 94 | 3.0 | 6.0 | 0.00 | 0.00 | 0.00 | 66 | 1010.0 |
| 20260504224925 | 72 | 178 | 5.0 | 9.0 | 0.00 | 0.00 | 0.00 | 68 | 1009.9 |
| 20260504224421 | 72 | 147 | 2.0 | 5.0 | 0.00 | 0.00 | 0.00 | 68 | 1010.0 |
| 20260504223919 | 71 | 153 | 5.0 | 9.0 | 0.00 | 0.00 | 0.00 | 68 | 1010.1 |
| 20260504223414 | 72 | 115 | 4.0 | 6.0 | 0.00 | 0.00 | 0.00 | 67 | 1010.5 |
| 20260504222910 | 72 | 158 | 3.0 | 6.0 | 0.00 | 0.00 | 0.00 | 68 | 1010.3 |
| 20260504222408 | 72 | 136 | 5.0 | 5.0 | 0.00 | 0.00 | 0.00 | 69 | 1010.6 |
| 20260504221906 | 72 | 102 | 0.0 | 2.0 | 0.00 | 0.00 | 0.00 | 70 | 1010.3 |
| 20260504221402 | 71 | 110 | 4.0 | 8.0 | 0.00 | 0.00 | 0.00 | 68 | 1010.7 |
| 20260504220859 | 71 | 114 | 6.0 | 8.0 | 0.00 | 0.00 | 0.00 | 69 | 1010.9 |
| 20260504220356 | 71 | 118 | 0.0 | 9.0 | 0.00 | 0.00 | 0.00 | 69 | 1010.6 |
| 20260504215853 | 71 | 125 | 2.0 | 5.0 | 0.00 | 0.00 | 0.00 | 67 | 1010.7 |
| 20260504215349 | 71 | 81 | 2.0 | 5.0 | 0.00 | 0.00 | 0.00 | 67 | 1010.8 |
| 20260504214846 | 71 | 152 | 3.0 | 5.0 | 0.00 | 0.00 | 0.00 | 68 | 1010.7 |
| 20260504214343 | 72 | 119 | 2.0 | 6.0 | 0.00 | 0.00 | 0.00 | 70 | 1010.8 |
| 20260504213840 | 71 | 133 | 6.0 | 9.0 | 0.00 | 0.00 | 0.00 | 67 | 1010.9 |
| 20260504213335 | 71 | 103 | 2.0 | 5.0 | 0.00 | 0.00 | 0.00 | 69 | 1010.9 |
| 20260504212833 | 71 | 159 | 2.0 | 3.0 | 0.00 | 0.00 | 0.00 | 68 | 1011.1 |
| 20260504212329 | 71 | 111 | 4.0 | 6.0 | 0.00 | 0.00 | 0.00 | 68 | 1011.1 |
| 20260504211827 | 70 | 184 | 7.0 | 8.0 | 0.00 | 0.00 | 0.00 | 69 | 1011.3 |
| 20260504211322 | 70 | 91 | 1.0 | 5.0 | 0.00 | 0.00 | 0.00 | 68 | 1011.2 |
| 20260504210820 | 71 | 76 | 3.0 | 9.0 | 0.00 | 0.00 | 0.00 | 69 | 1011.3 |
| 20260504210317 | 70 | 112 | 3.0 | 11.0 | 0.00 | 0.00 | 0.00 | 69 | 1011.3 |
| 20260504205814 | 70 | 71 | 2.0 | 5.0 | 0.00 | 0.00 | 0.00 | 68 | 1011.6 |
| 20260504205312 | 69 | 153 | 5.0 | 8.0 | 0.00 | 0.00 | 0.00 | 70 | 1011.6 |
| 20260504204810 | 69 | 81 | 0.0 | 3.0 | 0.00 | 0.00 | 0.00 | 69 | 1011.7 |
| 20260504204308 | 69 | 133 | 3.0 | 5.0 | 0.00 | 0.00 | 0.00 | 70 | 1011.6 |
| 20260504203807 | 70 | 146 | 7.0 | 8.0 | 0.00 | 0.00 | 0.00 | 69 | 1011.6 |
| 20260504203304 | 69 | 65 | 2.0 | 8.0 | 0.00 | 0.00 | 0.00 | 69 | 1011.6 |
| 20260504202758 | 69 | 158 | 3.0 | 5.0 | 0.00 | 0.00 | 0.00 | 68 | 1011.6 |
| 20260504202256 | 68 | 74 | 1.0 | 8.0 | 0.00 | 0.00 | 0.00 | 69 | 1012.0 |
| 20260504201753 | 69 | 81 | 1.0 | 9.0 | 0.00 | 0.00 | 0.00 | 72 | 1011.9 |
| 20260504201250 | 68 | 151 | 3.0 | 6.0 | 0.00 | 0.00 | 0.00 | 71 | 1012.0 |
| 20260504200748 | 69 | 174 | 4.0 | 6.0 | 0.00 | 0.00 | 0.00 | 70 | 1011.9 |
| 20260504200243 | 68 | 147 | 6.0 | 9.0 | 0.00 | 0.00 | 0.00 | 72 | 1011.9 |
| 20260504195740 | 68 | 94 | 3.0 | 6.0 | 0.00 | 0.00 | 0.00 | 70 | 1011.8 |
| 20260504195236 | 68 | 115 | 5.0 | 8.0 | 0.00 | 0.00 | 0.00 | 73 | 1012.0 |
| 20260504194733 | 67 | 76 | 2.0 | 5.0 | 0.00 | 0.00 | 0.00 | 71 | 1012.1 |
| 20260504194229 | 68 | 94 | 3.0 | 11.0 | 0.00 | 0.00 | 0.00 | 71 | 1012.3 |
| 20260504193726 | 68 | 120 | 2.0 | 9.0 | 0.00 | 0.00 | 0.00 | 71 | 1012.1 |
| 20260504193223 | 68 | 93 | 3.0 | 5.0 | 0.00 | 0.00 | 0.00 | 71 | 1012.0 |
| 20260504192722 | 68 | 100 | 3.0 | 5.0 | 0.00 | 0.00 | 0.00 | 70 | 1012.2 |
| 20260504192219 | 67 | 78 | 2.0 | 6.0 | 0.00 | 0.00 | 0.00 | 71 | 1012.0 |
| 20260504191718 | 68 | 103 | 4.0 | 9.0 | 0.00 | 0.00 | 0.00 | 75 | 1012.2 |
| 20260504191214 | 67 | 161 | 5.0 | 8.0 | 0.00 | 0.00 | 0.00 | 71 | 1012.4 |
| 20260504190709 | 67 | 72 | 0.0 | 5.0 | 0.00 | 0.00 | 0.00 | 72 | 1012.6 |
| 20260504190206 | 67 | 86 | 2.0 | 8.0 | 0.00 | 0.00 | 0.00 | 72 | 1012.5 |
| 20260504185703 | 67 | 183 | 6.0 | 9.0 | 0.00 | 0.00 | 0.00 | 72 | 1012.6 |
| 20260504185159 | 66 | 132 | 2.0 | 8.0 | 0.00 | 0.00 | 0.00 | 73 | 1012.6 |
| 20260504184655 | 66 | 108 | 2.0 | 3.0 | 0.00 | 0.00 | 0.00 | 73 | 1012.7 |
| 20260504184151 | 66 | 122 | 6.0 | 8.0 | 0.00 | 0.00 | 0.00 | 73 | 1012.3 |
| 20260504183648 | 66 | 91 | 1.0 | 5.0 | 0.00 | 0.00 | 0.00 | 73 | 1012.7 |
| 20260504183145 | 66 | 70 | 1.0 | 5.0 | 0.00 | 0.00 | 0.00 | 73 | 1012.3 |
| 20260504182643 | 67 | 78 | 1.0 | 6.0 | 0.00 | 0.00 | 0.00 | 73 | 1012.3 |
| 20260504182140 | 67 | 94 | 3.0 | 6.0 | 0.00 | 0.00 | 0.00 | 71 | 1012.6 |
| 20260504181637 | 67 | 80 | 2.0 | 3.0 | 0.00 | 0.00 | 0.00 | 72 | 1012.4 |
| 20260504181135 | 66 | 116 | 4.0 | 6.0 | 0.00 | 0.00 | 0.00 | 74 | 1012.4 |
| 20260504180634 | 66 | 137 | 3.0 | 5.0 | 0.00 | 0.00 | 0.00 | 75 | 1012.5 |
| 20260504180132 | 65 | 105 | 3.0 | 6.0 | 0.00 | 0.00 | 0.00 | 75 | 1012.4 |
| 20260504175629 | 66 | 122 | 2.0 | 6.0 | 0.00 | 0.00 | 0.00 | 76 | 1012.7 |
| 20260504175125 | 65 | 89 | 0.0 | 3.0 | 0.00 | 0.00 | 0.00 | 74 | 1012.4 |
| 20260504174624 | 65 | 135 | 6.0 | 9.0 | 0.00 | 0.00 | 0.00 | 75 | 1012.7 |
| 20260504174120 | 65 | 83 | 2.0 | 5.0 | 0.00 | 0.00 | 0.00 | 74 | 1012.5 |
| 20260504173617 | 65 | 100 | 3.0 | 5.0 | 0.00 | 0.00 | 0.00 | 75 | 1012.3 |
| 20260504173115 | 65 | 159 | 5.0 | 9.0 | 0.00 | 0.00 | 0.00 | 76 | 1012.4 |
| 20260504172611 | 64 | 86 | 1.0 | 3.0 | 0.00 | 0.00 | 0.00 | 75 | 1012.6 |
| 20260504172108 | 63 | 130 | 3.0 | 6.0 | 0.00 | 0.00 | 0.00 | 77 | 1012.6 |
| 20260504171604 | 63 | 139 | 7.0 | 9.0 | 0.00 | 0.00 | 0.00 | 77 | 1012.7 |
| 20260504171101 | 63 | 115 | 3.0 | 6.0 | 0.00 | 0.00 | 0.00 | 76 | 1012.8 |
| 20260504170557 | 63 | 136 | 4.0 | 9.0 | 0.00 | 0.00 | 0.00 | 76 | 1012.5 |
| 20260504150941 | 58 | 353 | 5.0 | 9.0 | 0.00 | 0.00 | 0.00 | 84 | 1011.9 |
| 20260504150438 | 58 | 4 | 3.0 | 6.0 | 0.00 | 0.00 | 0.00 | 85 | 1012.1 |
| 20260504140904 | 57 | 355 | 3.0 | 6.0 | 0.00 | 0.00 | 0.00 | 86 | 1011.7 |
| 20260504140400 | 57 | 14 | 3.0 | 6.0 | 0.00 | 0.00 | 0.00 | 86 | 1011.4 |
| 20260504130325 | 57 | 48 | 2.0 | 5.0 | 0.00 | 0.00 | 0.00 | 85 | 1010.4 |
| 20260504120248 | 58 | 16 | 2.0 | 3.0 | 0.00 | 0.00 | 0.00 | 82 | 1009.2 |
| 20260504110716 | 60 | 50 | 2.0 | 6.0 | 0.00 | 0.00 | 0.00 | 77 | 1008.9 |
| 20260504110212 | 61 | 316 | 3.0 | 5.0 | 0.00 | 0.00 | 0.00 | 77 | 1008.4 |
| 20260504100131 | 64 | 0 | 6.0 | 14.0 | 0.00 | 0.00 | 0.00 | 72 | 1007.8 |
| 20260504081524 | 72 | 37 | 3.0 | 6.0 | 0.00 | 0.00 | 0.00 | 50 | 1007.7 |
| 20260504081019 | 71 | 351 | 2.0 | 3.0 | 0.00 | 0.00 | 0.00 | 50 | 1007.8 |
| 20260504080516 | 72 | 335 | 2.0 | 6.0 | 0.00 | 0.00 | 0.00 | 51 | 1007.8 |
| 20260504050328 | 77 | 18 | 2.0 | 5.0 | 0.00 | 0.00 | 0.00 | 44 | 1006.9 |
| 20260504045825 | 77 | 13 | 3.0 | 6.0 | 0.00 | 0.00 | 0.00 | 44 | 1006.8 |
| 20260504045320 | 77 | 9 | 6.0 | 9.0 | 0.00 | 0.00 | 0.00 | 44 | 1006.6 |
| 20260504044817 | 78 | 41 | 3.0 | 5.0 | 0.00 | 0.00 | 0.00 | 43 | 1006.8 |
| 20260504044315 | 78 | 67 | 1.0 | 6.0 | 0.00 | 0.00 | 0.00 | 43 | 1006.6 |
| 20260504043812 | 77 | 83 | 3.0 | 11.0 | 0.00 | 0.00 | 0.00 | 43 | 1006.7 |
| 20260504043309 | 78 | 345 | 3.0 | 5.0 | 0.00 | 0.00 | 0.00 | 44 | 1006.8 |
| 20260504042806 | 78 | 23 | 2.0 | 9.0 | 0.00 | 0.00 | 0.00 | 43 | 1006.7 |
| 20260504042304 | 78 | 139 | 2.0 | 3.0 | 0.00 | 0.00 | 0.00 | 43 | 1006.8 |
| 20260504041759 | 78 | 56 | 2.0 | 3.0 | 0.00 | 0.00 | 0.00 | 43 | 1006.6 |
| 20260504041255 | 78 | 45 | 2.0 | 5.0 | 0.00 | 0.00 | 0.00 | 43 | 1006.4 |
| 20260504040751 | 78 | 71 | 1.0 | 2.0 | 0.00 | 0.00 | 0.00 | 43 | 1006.3 |
| 20260504040249 | 78 | 27 | 0.0 | 3.0 | 0.00 | 0.00 | 0.00 | 43 | 1006.4 |
| 20260504035744 | 78 | 83 | 2.0 | 5.0 | 0.00 | 0.00 | 0.00 | 43 | 1006.3 |
| 20260504035242 | 78 | 2 | 2.0 | 5.0 | 0.00 | 0.00 | 0.00 | 42 | 1006.4 |
| 20260504034739 | 79 | 13 | 2.0 | 8.0 | 0.00 | 0.00 | 0.00 | 41 | 1006.4 |
| 20260504034237 | 79 | 121 | 2.0 | 3.0 | 0.00 | 0.00 | 0.00 | 41 | 1006.4 |
| 20260504033734 | 79 | 80 | 0.0 | 3.0 | 0.00 | 0.00 | 0.00 | 42 | 1005.9 |
| 20260504033231 | 79 | 36 | 1.0 | 3.0 | 0.00 | 0.00 | 0.00 | 40 | 1006.2 |
| 20260504032728 | 79 | 320 | 1.0 | 2.0 | 0.00 | 0.00 | 0.00 | 40 | 1006.0 |
| 20260504032225 | 80 | 71 | 0.0 | 6.0 | 0.00 | 0.00 | 0.00 | 40 | 1006.1 |
| 20260504031722 | 80 | 55 | 1.0 | 6.0 | 0.00 | 0.00 | 0.00 | 40 | 1006.2 |
| 20260504031219 | 80 | 166 | 1.0 | 5.0 | 0.00 | 0.00 | 0.00 | 39 | 1006.0 |
| 20260504030715 | 80 | 98 | 0.0 | 3.0 | 0.00 | 0.00 | 0.00 | 40 | 1006.0 |
| 20260504030213 | 80 | 337 | 2.0 | 3.0 | 0.00 | 0.00 | 0.00 | 39 | 1006.0 |
| 20260504025709 | 80 | 73 | 1.0 | 2.0 | 0.00 | 0.00 | 0.00 | 39 | 1006.0 |
| 20260504025206 | 80 | 288 | 2.0 | 3.0 | 0.00 | 0.00 | 0.00 | 39 | 1006.2 |
| 20260504024703 | 80 | 44 | 3.0 | 5.0 | 0.00 | 0.00 | 0.00 | 39 | 1006.0 |
| 20260504024159 | 80 | 31 | 3.0 | 5.0 | 0.00 | 0.00 | 0.00 | 40 | 1006.1 |
| 20260504023656 | 81 | 27 | 2.0 | 3.0 | 0.00 | 0.00 | 0.00 | 40 | 1005.8 |
| 20260504023152 | 81 | 46 | 2.0 | 5.0 | 0.00 | 0.00 | 0.00 | 40 | 1005.9 |
| 20260504022648 | 82 | 40 | 3.0 | 6.0 | 0.00 | 0.00 | 0.00 | 40 | 1006.1 |
| 20260504022144 | 82 | 20 | 4.0 | 6.0 | 0.00 | 0.00 | 0.00 | 40 | 1006.0 |
| 20260504021643 | 82 | 20 | 5.0 | 6.0 | 0.00 | 0.00 | 0.00 | 40 | 1006.0 |
| 20260504021139 | 82 | 352 | 2.0 | 5.0 | 0.00 | 0.00 | 0.00 | 41 | 1005.9 |
| 20260504020636 | 83 | 8 | 1.0 | 8.0 | 0.00 | 0.00 | 0.00 | 40 | 1006.1 |
| 20260504020132 | 83 | 5 | 1.0 | 3.0 | 0.00 | 0.00 | 0.00 | 39 | 1006.2 |
| 20260504015629 | 83 | 314 | 4.0 | 6.0 | 0.00 | 0.00 | 0.00 | 39 | 1006.0 |
| 20260504015125 | 84 | 4 | 1.0 | 5.0 | 0.00 | 0.00 | 0.00 | 39 | 1006.2 |
| 20260504014621 | 84 | 62 | 1.0 | 8.0 | 0.00 | 0.00 | 0.00 | 39 | 1006.1 |
| 20260504014118 | 84 | 295 | 4.0 | 5.0 | 0.00 | 0.00 | 0.00 | 39 | 1006.2 |
| 20260504013616 | 84 | 322 | 2.0 | 6.0 | 0.00 | 0.00 | 0.00 | 39 | 1006.2 |
| 20260504013113 | 84 | 35 | 2.0 | 5.0 | 0.00 | 0.00 | 0.00 | 39 | 1006.2 |
| 20260504012610 | 85 | 51 | 2.0 | 3.0 | 0.00 | 0.00 | 0.00 | 38 | 1006.2 |
| 20260504012108 | 85 | 18 | 3.0 | 8.0 | 0.00 | 0.00 | 0.00 | 37 | 1006.4 |
| 20260504011604 | 85 | 29 | 1.0 | 5.0 | 0.00 | 0.00 | 0.00 | 37 | 1006.0 |
| 20260504011100 | 85 | 14 | 3.0 | 9.0 | 0.00 | 0.00 | 0.00 | 36 | 1006.2 |
| 20260504010556 | 85 | 316 | 3.0 | 6.0 | 0.00 | 0.00 | 0.00 | 35 | 1006.4 |
| 20260504010052 | 86 | 357 | 4.0 | 5.0 | 0.00 | 0.00 | 0.00 | 36 | 1006.4 |
| 20260504005549 | 86 | 30 | 2.0 | 6.0 | 0.00 | 0.00 | 0.00 | 35 | 1006.3 |
| 20260504005047 | 86 | 25 | 2.0 | 5.0 | 0.00 | 0.00 | 0.00 | 36 | 1006.6 |
| 20260504004544 | 86 | 11 | 4.0 | 8.0 | 0.00 | 0.00 | 0.00 | 35 | 1006.4 |
| 20260504004041 | 86 | 50 | 3.0 | 6.0 | 0.00 | 0.00 | 0.00 | 35 | 1006.8 |
| 20260504003537 | 86 | 29 | 2.0 | 6.0 | 0.00 | 0.00 | 0.00 | 35 | 1006.7 |
| 20260504003034 | 86 | 23 | 3.0 | 6.0 | 0.00 | 0.00 | 0.00 | 36 | 1006.8 |
| 20260504002531 | 86 | 38 | 2.0 | 6.0 | 0.00 | 0.00 | 0.00 | 35 | 1006.7 |
| 20260504002029 | 87 | 47 | 4.0 | 5.0 | 0.00 | 0.00 | 0.00 | 34 | 1006.7 |
| 20260504001526 | 87 | 9 | 2.0 | 6.0 | 0.00 | 0.00 | 0.00 | 34 | 1006.6 |
| 20260504001022 | 87 | 10 | 9.0 | 9.0 | 0.00 | 0.00 | 0.00 | 34 | 1006.9 |
| 20260504000520 | 87 | 70 | 3.0 | 11.0 | 0.00 | 0.00 | 0.00 | 33 | 1007.1 |
| 20260504000017 | 87 | 359 | 4.0 | 5.0 | 0.00 | 0.00 | 0.00 | 33 | 1007.0 |
| 20260503235515 | 87 | 353 | 3.0 | 5.0 | 0.00 | 0.00 | 0.00 | 33 | 1006.9 |
| 20260503235012 | 87 | 4 | 5.0 | 6.0 | 0.00 | 0.00 | 0.00 | 33 | 1007.0 |
| 20260503234509 | 87 | 335 | 4.0 | 5.0 | 0.00 | 0.00 | 0.00 | 32 | 1006.9 |
| 20260503234008 | 87 | 347 | 5.0 | 8.0 | 0.00 | 0.00 | 0.00 | 34 | 1007.0 |
| 20260503233503 | 88 | 345 | 4.0 | 6.0 | 0.00 | 0.00 | 0.00 | 33 | 1006.9 |
| 20260503232959 | 87 | 14 | 3.0 | 5.0 | 0.00 | 0.00 | 0.00 | 33 | 1007.2 |
| 20260503232457 | 87 | 359 | 7.0 | 8.0 | 0.00 | 0.00 | 0.00 | 32 | 1007.1 |
| 20260503231954 | 87 | 20 | 4.0 | 8.0 | 0.00 | 0.00 | 0.00 | 32 | 1007.1 |